Hereford, TX

6:56 AM CST on December 17, 2017 (GMT -0600)
Hereford Municipal

Weather History for KHRX - January, 2014

Change the Weather History Date:

Sunday, January 12, 2014

  Actual Average (KCVN) Record (KCVN)
Temperature  
Mean Temperature 52 °F -  
Max Temperature 68 °F 50 °F 75 °F (1928)
Min Temperature 33 °F 22 °F -8 °F (1963)
Degree Days  
Heating Degree Days 13    
Growing Degree Days 2 (Base 50)    
Moisture  
Dew Point 16 °F    
Average Humidity 27    
Maximum Humidity 60    
Minimum Humidity 12    
Precipitation  
Precipitation 0.00 in - - ()
Sea Level Pressure  
Sea Level Pressure 29.81 in    
Wind  
Wind Speed 18 mph (WSW)    
Max Wind Speed 39 mph    
Max Gust Speed 50 mph    
Visibility 10 miles    
Events      
Averages and records for this station are not official NWS values.
T = Trace of Precipitation, MM = Missing Value Source: NWS Daily Summary

Daily Weather History Graph

Daily Weather History Graph

Search for Another Location

Airport or City:

Trip Planner

Search our weather history database for the weather conditions in past years. The results will help you decide how hot, cold, wet, or windy it might be!

Date:

Astronomy

Jan. 12, 2014 Rise Set
Actual Time 7:57 AM CST 5:58 PM CST
Civil Twilight 7:29 AM CST 6:26 PM CST
Nautical Twilight 6:58 AM CST 6:57 PM CST
Astronomical Twilight 6:27 AM CST 7:27 PM CST
Moon 3:27 PM CST (1/12) 4:58 AM CST (1/12)
Length of Visible Light 10h 56m
Length of Day
10h 01m
Waxing Gibbous, 90% of the Moon is Illuminated
Jan 12
Waxing Gibbous
Jan 15
Full
Jan 23
Last Quarter
Jan 30
New
Feb 6
First Quarter

Hourly Weather History & Observations

Time (CST) Temp. Windchill Dew Point Humidity Pressure Visibility Wind Dir Wind Speed Gust Speed Precip Events Conditions
12:15 AM 54.3 °F - 17.6 °F 24% 29.90 in 10.0 mi SSW 17.3 mph - N/A   Clear
12:35 AM 52.2 °F - 18.0 °F 26% 29.89 in 10.0 mi SW 19.6 mph 25.3 mph N/A   Clear
12:55 AM 51.6 °F - 18.1 °F 27% 29.88 in 10.0 mi WSW 16.1 mph - N/A   Clear
1:15 AM 48.6 °F - 18.1 °F 30% 29.88 in 10.0 mi SSW 8.1 mph - N/A   Clear
1:35 AM 42.8 °F 37.0 °F 18.0 °F 37% 29.87 in 10.0 mi South 10.4 mph - N/A   Clear
1:55 AM 42.3 °F 36.3 °F 18.5 °F 39% 29.87 in 10.0 mi SSW 10.4 mph - N/A   Clear
2:15 AM 47.3 °F - 18.5 °F 32% 29.86 in 10.0 mi SW 19.6 mph 26.5 mph N/A   Clear
2:35 AM 51.8 °F - 18.7 °F 27% 29.85 in 10.0 mi WSW 20.7 mph 27.6 mph N/A   Clear
2:55 AM 49.3 °F - 18.5 °F 30% 29.85 in 10.0 mi SW 15.0 mph - N/A   Clear
3:15 AM 45.0 °F 39.3 °F 18.3 °F 35% 29.85 in 10.0 mi SW 11.5 mph - N/A   Clear
3:35 AM 44.4 °F 37.9 °F 18.5 °F 35% 29.84 in 10.0 mi SW 13.8 mph - N/A   Clear
3:55 AM 43.5 °F 37.1 °F 18.5 °F 37% 29.84 in 10.0 mi SW 12.7 mph - N/A   Clear
4:15 AM 43.5 °F 36.1 °F 18.7 °F 37% 29.83 in 10.0 mi SW 16.1 mph - N/A   Clear
4:35 AM 43.7 °F 37.3 °F 18.9 °F 37% 29.82 in 10.0 mi SW 12.7 mph - N/A   Clear
4:55 AM 42.3 °F 34.4 °F 18.5 °F 39% 29.82 in 10.0 mi SSW 16.1 mph - N/A   Clear
5:15 AM 40.8 °F 33.3 °F 18.3 °F 40% 29.81 in 10.0 mi SSW 13.8 mph - N/A   Clear
5:35 AM 41.7 °F 34.1 °F 18.5 °F 39% 29.80 in 10.0 mi SW 15.0 mph - N/A   Clear
5:55 AM 43.2 °F 35.3 °F 18.0 °F 36% 29.80 in 10.0 mi SW 17.3 mph - N/A   Clear
6:15 AM 42.8 °F 35.4 °F 18.0 °F 37% 29.79 in 10.0 mi SW 15.0 mph - N/A   Clear
6:35 AM 41.5 °F 34.2 °F 18.1 °F 39% 29.79 in 10.0 mi SW 13.8 mph - N/A   Clear
6:55 AM 40.8 °F 33.3 °F 18.3 °F 40% 29.78 in 10.0 mi SW 13.8 mph - N/A   Clear
7:15 AM 39.4 °F 33.2 °F 18.3 °F 43% 29.79 in 10.0 mi SSW 9.2 mph 17.3 mph N/A   Clear
7:35 AM 39.9 °F 33.4 °F 18.5 °F 42% 29.78 in 10.0 mi SSW 10.4 mph 16.1 mph N/A   Clear
7:55 AM 41.4 °F 34.3 °F 18.5 °F 40% 29.79 in 10.0 mi SSW 12.7 mph 19.6 mph N/A   Clear
8:15 AM 43.5 °F 35.8 °F 18.9 °F 37% 29.79 in 10.0 mi SW 17.3 mph - N/A   Clear
8:35 AM 44.2 °F 36.7 °F 18.0 °F 35% 29.79 in 10.0 mi SW 17.3 mph 24.2 mph N/A   Clear
8:55 AM 45.9 °F 39.4 °F 18.5 °F 34% 29.80 in 10.0 mi WSW 15.0 mph 20.7 mph N/A   Clear
9:15 AM 49.5 °F - 18.7 °F 30% 29.80 in 10.0 mi WSW 19.6 mph - N/A   Clear
9:35 AM 52.0 °F - 19.2 °F 28% 29.79 in 10.0 mi SW 19.6 mph 23.0 mph N/A   Clear
9:55 AM 55.6 °F - 18.5 °F 23% 29.80 in 10.0 mi North - - N/A   Clear
10:15 AM 57.2 °F - 18.3 °F 22% 29.79 in 10.0 mi SW 23.0 mph 33.4 mph N/A   Clear
10:35 AM 59.5 °F - 18.5 °F 20% 29.79 in 10.0 mi SW 25.3 mph - N/A   Clear
10:55 AM 62.4 °F - 17.6 °F 18% 29.78 in 10.0 mi North - - N/A   Clear
11:15 AM 63.5 °F - 16.2 °F 16% 29.78 in 10.0 mi North - - N/A   Clear
11:35 AM 65.3 °F - 14.4 °F 14% 29.76 in 7.0 mi WSW 34.5 mph 42.6 mph N/A   Clear
11:55 AM 66.4 °F - 14.0 °F 13% 29.76 in 5.0 mi West 34.5 mph 49.5 mph N/A   Haze
12:15 PM 66.4 °F - 14.7 °F 14% 29.75 in 7.0 mi WSW 35.7 mph 42.6 mph N/A   Clear
12:35 PM 67.3 °F - 14.5 °F 13% 29.74 in 10.0 mi West 39.1 mph - N/A   Clear
12:55 PM 68.0 °F - 14.7 °F 13% 29.72 in 10.0 mi West 33.4 mph 42.6 mph N/A   Clear
1:15 PM 67.3 °F - 14.5 °F 13% 29.72 in 10.0 mi WSW 33.4 mph 43.7 mph N/A   Clear
1:35 PM 67.3 °F - 14.9 °F 13% 29.72 in 10.0 mi WSW 33.4 mph 41.4 mph N/A   Clear
1:55 PM 67.8 °F - 14.9 °F 13% 29.71 in 10.0 mi West 32.2 mph 41.4 mph N/A   Clear
2:15 PM 68.2 °F - 14.7 °F 13% 29.71 in 7.0 mi West 31.1 mph 42.6 mph N/A   Clear
2:35 PM 68.2 °F - 14.9 °F 13% 29.71 in 10.0 mi WSW 32.2 mph - N/A   Clear
2:55 PM 67.3 °F - 14.4 °F 13% 29.71 in 10.0 mi West 31.1 mph 39.1 mph N/A   Clear
3:15 PM 67.3 °F - 14.4 °F 13% 29.71 in 10.0 mi North - - N/A   Clear
3:35 PM 65.8 °F - 14.7 °F 14% 29.73 in 10.0 mi WSW 29.9 mph 34.5 mph N/A   Clear
3:55 PM 64.6 °F - 14.9 °F 15% 29.73 in 10.0 mi West 23.0 mph - N/A   Clear
4:15 PM 63.7 °F - 15.4 °F 15% 29.74 in 10.0 mi WSW 19.6 mph 25.3 mph N/A   Clear
4:35 PM 63.0 °F - 16.5 °F 17% 29.73 in 10.0 mi WSW 12.7 mph 19.6 mph N/A   Clear
4:55 PM 62.8 °F - 16.9 °F 17% 29.74 in 10.0 mi WSW 13.8 mph - N/A   Clear
5:15 PM 64.9 °F - 11.7 °F 13% 29.74 in 10.0 mi West 24.2 mph 28.8 mph N/A   Clear
5:35 PM 63.7 °F - 9.0 °F 12% 29.75 in 10.0 mi WNW 26.5 mph 33.4 mph N/A   Clear
5:55 PM 61.5 °F - 7.5 °F 12% 29.75 in 10.0 mi WNW 32.2 mph 36.8 mph N/A   Clear
6:15 PM 59.5 °F - 7.5 °F 13% 29.76 in 10.0 mi West 18.4 mph 27.6 mph N/A   Clear
6:35 PM 57.6 °F - 7.3 °F 14% 29.77 in 10.0 mi WNW 21.9 mph - N/A   Clear
6:55 PM 57.2 °F - 7.7 °F 14% 29.78 in 10.0 mi West 23.0 mph 28.8 mph N/A   Clear
7:15 PM 57.6 °F - 6.8 °F 13% 29.79 in 10.0 mi West 20.7 mph 31.1 mph N/A   Clear
7:35 PM 54.5 °F - 5.9 °F 14% 29.80 in 10.0 mi WNW 13.8 mph 20.7 mph N/A   Clear
7:55 PM 52.5 °F - 5.9 °F 15% 29.80 in 10.0 mi NW 15.0 mph - N/A   Clear
8:15 PM 52.2 °F - 5.9 °F 15% 29.82 in 10.0 mi WNW 16.1 mph - N/A   Clear
8:35 PM 50.2 °F - 13.8 °F 23% 29.85 in 10.0 mi North 17.3 mph - N/A   Clear
8:55 PM 48.6 °F - 15.4 °F 27% 29.88 in 10.0 mi NNW 10.4 mph - N/A   Clear
9:15 PM 46.2 °F 42.2 °F 15.1 °F 29% 29.90 in 10.0 mi NNW 8.1 mph - N/A   Clear
9:35 PM 44.6 °F 40.2 °F 16.2 °F 32% 29.90 in 10.0 mi North 8.1 mph - N/A   Clear
9:55 PM 42.1 °F 35.7 °F 17.8 °F 38% 29.92 in 7.0 mi North 11.5 mph - N/A   Clear
10:15 PM 42.1 °F 34.5 °F 19.2 °F 40% 29.93 in 10.0 mi North 15.0 mph - N/A   Clear
10:35 PM 40.8 °F 34.5 °F 19.9 °F 43% 29.95 in 10.0 mi North 10.4 mph - N/A   Clear
10:55 PM 39.6 °F 33.0 °F 21.7 °F 49% 29.97 in 10.0 mi North 10.4 mph - N/A   Clear
11:15 PM 40.1 °F 33.6 °F 24.3 °F 53% 29.97 in 10.0 mi NNW 10.4 mph - N/A   Mostly Cloudy
11:35 PM 36.1 °F 29.9 °F 21.2 °F 55% 29.99 in 7.0 mi WNW 8.1 mph - N/A   Mostly Cloudy
11:55 PM 33.4 °F 25.9 °F 20.8 °F 60% 30.00 in 10.0 mi West 9.2 mph - N/A   Scattered Clouds